GFSNIL_con_3kmhel_003.txt.gz
Helicity
148 164 201 221 158 101 93 107 118 114 129 119 180 194 208 212 179 171 156 126 108 74
189 217 204 144 58 97 108 113 124 120 143 155 173 236 229 162 131 127 105 97 82 43
219 158 108 97 102 120 133 144 159 203 161 173 214 222 193 163 113 113 104 74 67 37
136 107 112 132 167 229 186 137 162 193 198 198 209 138 105 115 97 110 106 95 86 83
153 132 95 182 238 181 150 159 138 120 133 86 95 89 99 102 100 85 102 116 130 128
138 120 178 189 126 86 95 92 74 87 71 66 80 66 67 75 70 67 74 93 102 131
147 130 112 106 105 126 117 109 100 86 70 75 76 76 86 120 124 92 77 80 79 91
127 91 124 161 143 121 109 103 84 74 74 75 79 120 179 140 101 88 84 97 88 67
134 167 141 149 129 115 96 83 83 76 69 77 71 180 173 128 98 70 61 62 70 81
230 159 170 146 120 97 89 72 67 64 73 107 94 206 169 140 102 96 77 63 63 62
215 181 141 115 84 94 64 71 74 94 130 114 105 195 194 145 88 93 73 62 61 63
162 97 125 113 88 60 61 68 101 144 134 120 114 110 151 98 88 78 56 49 49 55
115 135 81 87 63 53 57 89 172 159 137 112 95 113 100 93 91 69 64 41 30 22
117 100 79 62 48 55 68 122 181 141 126 96 115 108 118 100 87 78 63 16 14 30

GFSNIL_con_3kmhel_009.txt.gz
Helicity
324 290 301 332 162 218 220 179 164 116 100 133 146 156 150 136 158 167 150 164 127 92
322 262 254 234 238 260 195 157 121 88 87 94 103 109 109 110 108 93 96 121 101 92
177 176 249 255 247 207 155 127 84 84 65 60 68 72 99 95 78 86 73 86 109 126
117 210 197 183 226 218 135 116 36 7 39 50 61 60 71 82 91 89 79 87 93 89
199 265 173 215 264 291 144 89 78 115 103 84 86 77 70 56 92 103 91 79 59 30
235 224 167 247 261 289 186 141 188 176 120 101 95 81 106 122 113 96 73 47 31 29
154 170 238 441 395 243 152 159 197 169 145 145 121 154 158 167 151 113 83 53 55 45
212 262 282 293 360 225 60 167 187 172 148 143 189 189 199 175 137 95 73 60 37 21
163 161 136 118 176 68 154 175 189 165 145 195 192 196 174 156 136 114 96 89 62 43
50 21 42 77 55 188 150 150 130 187 176 166 154 169 156 173 178 132 117 97 76 73
62 33 75 106 113 105 124 146 194 161 166 157 120 102 128 162 154 140 105 92 64 63
81 96 148 138 49 133 149 196 163 158 135 84 42 90 192 155 137 136 107 74 56 45
77 91 95 55 42 129 177 171 171 129 77 47 93 186 174 172 179 131 90 68 59 31
97 120 111 95 136 120 153 170 126 100 64 77 133 135 179 176 135 88 89 88 81 54

GFSNIL_con_3kmhel_012.txt.gz
Helicity
222 196 180 167 222 169 82 155 107 105 105 74 65 56 77 116 141 138 129 122 113 105
139 103 110 108 146 132 166 114 127 119 63 49 10 16 47 107 148 128 88 77 60 65
106 124 140 160 190 213 155 143 146 151 68 -6 13 31 36 67 108 106 77 67 83 83
109 140 166 206 213 191 224 166 194 188 101 63 92 86 71 79 106 133 103 91 84 60
119 138 186 203 173 179 191 259 255 148 93 101 95 108 118 162 155 148 132 103 70 38
128 162 203 265 330 338 326 250 285 36 104 97 133 127 158 185 173 155 118 91 78 67
64 60 132 165 165 219 238 53 96 68 114 130 136 191 193 159 150 121 110 89 89 87
50 91 44 61 101 61 56 97 55 133 132 137 179 178 167 148 108 97 105 115 115 100
85 74 31 41 76 94 109 92 102 110 140 169 173 159 120 100 108 124 121 118 116 120
83 68 30 53 76 107 136 69 116 179 192 177 131 97 110 151 126 127 129 138 114 89
92 61 55 90 133 118 15 90 171 187 171 141 126 115 113 127 135 135 138 101 84 78
96 57 56 110 110 106 112 154 171 154 140 114 96 108 133 153 134 123 90 65 77 79
88 79 96 119 107 132 144 166 143 121 96 116 77 94 110 129 134 106 76 73 76 52
118 111 112 143 148 157 168 123 95 73 61 65 69 70 89 94 123 103 76 85 87 92

GFSNIL_con_3kmhel_015.txt.gz
Helicity
107 120 152 184 180 184 192 183 180 143 136 143 106 113 76 79 59 49 90 119 142 190
119 121 127 111 135 153 147 168 156 147 146 86 140 83 68 48 21 61 74 95 102 146
110 101 102 130 146 169 163 208 257 231 229 150 126 63 51 51 45 72 113 114 114 109
117 117 113 146 165 212 276 278 285 190 112 144 105 86 68 68 68 131 134 141 142 122
85 76 85 102 141 191 212 218 208 164 86 106 84 86 88 93 138 143 146 142 140 120
66 73 91 102 125 167 194 219 184 139 95 84 89 102 127 142 164 162 153 145 137 135
52 77 87 81 75 123 155 132 134 113 121 112 102 143 172 189 170 168 152 149 151 156
61 63 83 91 74 83 104 105 113 142 143 88 128 156 160 171 162 153 147 149 152 152
96 115 111 80 59 63 99 125 212 66 148 151 157 130 162 145 149 143 142 145 147 147
127 117 97 71 67 79 94 96 71 152 174 163 137 169 156 167 151 133 142 146 137 109
144 135 112 86 90 94 96 104 138 157 165 143 135 148 130 138 125 118 128 126 100 95
143 143 122 99 90 105 121 169 181 156 149 118 112 101 96 98 103 103 113 94 82 78
155 148 125 103 95 141 150 166 155 134 114 119 102 87 74 79 93 102 111 86 67 56
149 139 120 112 126 147 181 170 138 116 101 101 87 61 69 64 78 89 111 81 67 81

GFSNIL_con_3kmhel_018.txt.gz
Helicity
131 120 113 125 155 155 177 193 197 207 218 181 167 151 109 106 121 121 79 38 38 100
88 103 106 111 124 154 161 179 221 265 193 188 166 103 80 128 102 94 80 74 97 122
116 118 126 124 128 142 158 189 226 215 197 176 126 133 127 125 82 89 106 114 128 134
107 102 115 121 110 104 119 160 204 240 238 193 156 102 112 104 111 119 135 139 141 133
96 109 106 111 91 95 117 145 176 195 195 157 91 122 145 132 151 165 142 134 151 142
76 66 80 98 105 101 114 125 141 148 120 95 113 155 131 148 166 154 145 153 151 148
68 71 93 97 99 92 99 113 104 108 102 131 145 137 125 161 143 142 151 150 158 162
83 108 110 106 113 114 111 105 102 113 129 107 145 150 162 141 133 132 132 136 135 152
146 153 147 138 138 131 114 107 113 121 125 168 185 167 146 150 128 129 129 122 128 145
164 170 152 149 138 127 110 115 122 137 170 172 145 150 126 128 116 116 106 109 120 120
175 163 157 150 131 127 130 142 150 168 168 144 130 120 109 104 99 102 90 95 119 121
165 165 159 151 131 127 154 154 146 159 158 137 103 106 102 93 90 79 80 89 130 107
162 166 168 156 138 139 153 159 181 161 135 120 101 96 88 78 82 90 91 99 103 73
157 190 184 164 146 131 176 194 177 155 125 109 101 81 65 61 89 90 91 94 96 84

GFSNIL_con_3kmhel_021.txt.gz
Helicity
137 138 100 95 96 105 133 151 134 151 198 171 150 162 131 129 151 169 139 94 78 53
140 116 82 87 112 125 111 107 99 119 142 150 173 158 123 132 119 120 92 80 89 85
120 84 84 101 119 105 93 91 99 112 137 167 197 150 103 96 101 120 108 124 118 107
127 100 96 99 107 110 96 90 100 109 133 152 179 137 97 94 127 136 119 154 146 120
96 97 93 99 110 105 91 88 98 119 131 150 131 90 98 137 156 117 137 149 136 129
102 92 93 102 110 105 99 100 112 126 130 97 101 125 153 143 141 138 140 123 111 114
94 104 122 138 123 118 114 114 130 127 116 115 113 135 126 150 141 134 108 105 110 116
110 133 154 156 144 134 121 129 129 130 121 144 139 144 143 141 118 90 84 90 98 112
131 149 166 164 155 143 136 134 145 153 138 143 148 160 145 108 77 78 84 86 87 99
155 169 172 165 147 140 141 141 157 159 148 158 151 123 99 78 79 78 77 81 86 88
166 157 163 156 143 145 140 145 140 142 145 139 127 111 89 84 78 70 73 75 75 81
165 155 152 152 151 147 139 145 137 141 148 131 119 96 84 70 68 66 62 70 70 72
150 149 141 166 164 150 153 139 157 160 148 139 102 89 79 68 68 58 66 58 63 68
151 142 144 162 160 144 138 142 165 163 146 112 95 86 73 59 59 67 67 71 67 69

GFSNIL_con_3kmhel_024.txt.gz
Helicity
70 140 119 110 91 96 111 121 118 100 94 97 136 142 148 127 140 95 116 90 86 92
111 120 120 95 83 102 98 100 102 93 98 99 115 124 117 116 100 72 98 108 98 94
120 112 89 77 91 96 104 109 99 88 88 97 115 106 118 105 67 61 104 99 96 103
123 97 86 91 101 117 107 93 88 88 92 94 106 123 117 63 67 86 98 93 92 115
116 100 90 107 104 103 92 93 92 98 100 103 123 116 49 104 148 120 92 109 113 106
102 91 97 96 94 106 112 111 103 112 102 124 138 109 91 132 144 131 124 116 106 85
99 100 93 99 119 136 132 121 123 111 136 152 123 111 112 115 103 106 100 88 73 85
111 100 109 126 128 136 129 125 117 130 145 144 140 136 119 105 86 78 67 70 81 84
119 114 118 125 132 130 117 110 138 135 157 133 156 171 132 83 63 57 65 77 72 80
125 123 116 124 126 124 128 134 134 137 139 127 158 139 110 71 39 63 74 68 70 77
128 122 121 123 117 127 128 135 123 148 129 124 164 128 97 51 46 61 63 65 69 68
125 121 116 117 126 132 139 129 133 141 131 118 135 126 85 48 55 60 52 63 64 81
112 111 120 123 138 137 130 125 129 135 131 161 122 136 85 57 58 55 53 55 67 83
108 119 120 126 131 131 114 136 147 137 127 124 112 110 94 71 53 54 59 60 60 65

GFSNIL_con_3kmhel_027.txt.gz
Helicity
184 150 87 172 179 132 137 139 152 111 101 90 90 98 201 166 157 94 104 107 106 123
196 149 155 154 106 117 123 118 126 113 97 92 93 81 138 117 84 111 90 85 99 105
192 19 138 104 105 110 107 111 112 103 98 96 84 78 101 136 96 64 72 93 100 160
-90 96 109 101 98 99 126 102 99 95 93 85 89 102 139 146 106 73 56 113 167 88
30 115 114 111 101 116 113 103 105 102 100 101 116 189 129 101 109 92 211 168 163 142
126 115 123 108 107 112 116 120 121 107 109 130 154 116 204 139 118 100 97 112 124 106
154 152 132 107 111 113 124 133 108 105 120 154 128 165 149 145 120 97 104 105 93 81
171 142 109 100 113 110 139 115 104 111 117 186 164 202 180 141 135 103 83 81 69 82
170 124 102 111 116 101 109 113 120 124 128 187 186 314 197 124 100 77 74 73 84 81
149 115 104 95 96 104 116 134 122 115 158 140 245 275 173 108 76 64 76 80 77 77
122 103 93 91 85 91 105 127 124 123 166 153 264 270 159 86 53 69 70 73 65 71
106 109 86 80 85 101 116 125 150 120 173 145 213 254 162 84 68 63 65 60 61 108
85 84 84 85 91 99 113 107 137 139 145 189 206 209 161 94 72 65 57 54 61 146
64 69 89 95 94 91 89 142 158 186 150 129 186 159 150 109 76 66 65 59 67 83

GFSNIL_con_3kmhel_030.txt.gz
Helicity
346 307 212 301 282 189 227 214 204 179 172 144 134 116 105 171 191 161 168 143 160 125
364 377 340 278 173 142 205 150 217 193 156 139 122 116 111 124 142 145 123 95 104 137
345 311 300 267 76 185 163 174 162 150 142 124 108 102 109 165 158 156 128 105 93 113
324 327 259 147 144 141 154 174 140 152 146 117 106 120 211 168 100 171 137 135 195 159
300 236 147 263 149 169 179 166 157 166 161 123 125 199 183 229 177 158 147 129 95 100
175 225 184 212 193 171 158 163 190 219 169 128 157 211 215 206 164 131 168 161 136 132
263 95 284 276 194 156 162 194 218 185 138 127 197 242 189 221 193 167 163 134 123 126
139 428 218 216 157 148 164 168 173 132 124 160 236 254 286 258 214 175 140 120 132 138
247 201 328 205 158 126 78 103 141 146 154 163 259 294 278 238 182 131 106 116 131 125
433 247 236 134 91 92 114 138 144 139 142 207 314 292 253 227 163 112 100 114 123 102
279 403 164 144 122 90 101 114 131 170 168 213 304 276 249 204 145 99 97 116 104 97
214 166 137 117 91 95 93 104 138 166 160 193 297 262 247 203 148 116 108 105 88 93
151 137 68 83 96 95 92 98 146 236 243 258 319 252 227 186 153 132 111 87 93 130
144 83 81 85 91 93 88 116 130 184 183 197 228 231 198 164 152 127 128 107 81 118

GFSNIL_con_3kmhel_033.txt.gz
Helicity
516 487 428 448 378 346 338 314 379 237 195 179 132 133 132 140 136 161 176 159 154 189
439 459 448 410 394 337 318 365 298 221 201 185 142 118 114 151 144 151 161 157 153 172
395 373 368 380 304 307 286 233 256 237 190 158 124 107 141 171 145 149 112 99 145 187
345 333 335 289 354 251 326 160 165 155 169 152 136 121 166 167 172 154 133 113 143 130
366 316 287 251 335 221 198 174 156 178 192 174 144 147 198 188 175 160 150 174 169 151
368 290 321 370 236 212 244 149 178 228 198 173 141 191 196 201 208 187 163 149 142 128
347 326 374 232 239 476 144 156 197 165 139 139 146 208 241 260 261 236 202 179 156 137
425 395 320 401 494 260 141 119 114 98 115 119 194 245 237 251 248 216 181 151 141 166
633 542 450 484 267 168 103 82 72 105 123 146 245 260 262 254 222 198 164 126 126 135
536 449 508 582 388 193 118 92 93 80 115 162 263 264 259 227 204 182 142 112 119 126
607 647 651 633 349 223 141 130 95 90 125 211 222 218 240 231 210 183 144 121 132 128
779 893 837 616 206 98 114 89 65 111 130 184 234 217 232 246 201 179 142 120 120 129
987 796 374 155 116 109 69 49 97 140 165 185 208 203 220 232 228 187 136 116 147 147
264 145 116 76 58 74 76 94 101 115 134 158 169 179 174 173 214 179 147 135 119 132